Погода в Кальяо

Перу     12°03′44″S   77°05′42″W
темп.,
°C
ветер,
м/с
пор.,
м/с
влажн.,
%
обл.,
%
осадки,
мм/ч
давл.,
гПа
погр.,
м
15 мая, сб
сб1501:00+17ююз11793 0.0 1013198
04:00+16ююз118628 0.0 1013244
07:00+16юз118731 0.0 1014238
10:00+18зюз217429 0.0 1016439
13:00+20юз31630 0.0 1012460
16:00+20ююз42653 0.0 1011428
19:00+18ююз228012 0.0 1014322
22:00+18ю22780 0.0 1014229
16 мая, вс
вс1601:00+17ююв12795 0.0 1013180
04:00+17ююз22803 0.0 1012196
07:00+17юз218215 0.0 1013205
10:00+19з327222 0.0 1015407
13:00+21зюз42645 0.0 1013499
16:00+20юз326919 0.0 1012490
19:00+18ю217813 0.0 1014325
22:00+17ююз328320 0.0 1015322
17 мая, пн
пн1701:00+17ююв118521 0.0 1014260
04:00+16юз218622 0.0 1013197
07:00+17ю118522 0.0 1014197
10:00+19юз217177 0.0 1015355
13:00+20юз536731 0.0 1014544
16:00+20ююз426710 0.0 1012494
19:00+18ююз32778 0.0 1014327
22:00+18ююз22786 0.0 1015250
18 мая, вт
вт1801:00+16ю228426 0.0 1015302
04:00+17юз10826 0.0 1014210
07:00+16ююз228522 0.0 1016243
10:00+19ююз327125 0.0 1017515
13:00+21ююз546310 0.0 1015584
16:00+21ююз43632 0.0 1012472
19:00+18ю32757 0.0 1014263
22:00+17ю228320 0.0 1015290
19 мая, ср
ср1901:00+16ю338553 0.0 1014375
04:00+17ююз118126 0.0 1014359
07:00+16ю218418 0.0 1015262
10:00+18ююз326918 0.0 1016502
13:00+20ююз536217 0.0 1014628
16:00+20ю436511 0.0 1012539
19:00+18ю33757 0.0 1013343
22:00+17ю33794 0.0 1014264